KPF72K LOWS-LOWS

Flight info

Callsign KPF72K
Flight time 0h 13m
Altitude 6000
Route BY RDO
Aircraft CL60/M-SBDE1E2E3FGHIJ1J4J5J7M3RWXYZ/LB1V1D1

Departure

Time 2026-05-06 07:21
Airport Salzburg Airport (LOWS)

Arrival

Time 2026-05-06 07:34
Airport Salzburg Airport (LOWS)
Time Latitude Longitude Altitude Speed Heading
2026-05-06 06:40 47.79592 12.99875 1418 ft 0 kts 15°
2026-05-06 07:18 47.79593 12.99875 1418 ft 1 kts 13°
2026-05-06 07:18 47.79591 12.99851 1418 ft 6 kts 180°
2026-05-06 07:18 47.79555 12.99895 1418 ft 7 kts 96°
2026-05-06 07:18 47.79555 12.99980 1418 ft 9 kts 133°
2026-05-06 07:19 47.79493 13.00024 1418 ft 10 kts 157°
2026-05-06 07:19 47.79423 13.00070 1418 ft 8 kts 156°
2026-05-06 07:19 47.79380 13.00123 1418 ft 8 kts 103°
2026-05-06 07:19 47.79399 13.00213 1418 ft 10 kts 66°
2026-05-06 07:20 47.79431 13.00306 1418 ft 9 kts 31°
2026-05-06 07:20 47.79571 13.00239 1418 ft 50 kts 336°
2026-05-06 07:20 47.80158 12.99869 1418 ft 129 kts 337°
2026-05-06 07:20 47.81144 12.99247 1635 ft 167 kts 335°
2026-05-06 07:21 47.82280 12.98476 2087 ft 190 kts 336°
2026-05-06 07:21 47.83525 12.97562 2657 ft 208 kts 334°
2026-05-06 07:21 47.84862 12.96616 3310 ft 226 kts 336°
2026-05-06 07:21 47.86385 12.95564 3560 ft 253 kts 336°
2026-05-06 07:22 47.87969 12.94478 3588 ft 249 kts 336°
2026-05-06 07:22 47.89579 12.93554 3580 ft 245 kts 354°
2026-05-06 07:22 47.91225 12.93883 3575 ft 239 kts 28°
2026-05-06 07:22 47.92421 12.95554 3601 ft 236 kts 64°
2026-05-06 07:23 47.92807 12.97908 3598 ft 235 kts 86°
2026-05-06 07:23 47.92971 13.00336 3605 ft 239 kts 73°
2026-05-06 07:23 47.93923 13.02450 4029 ft 258 kts 39°
2026-05-06 07:23 47.95443 13.03924 4380 ft 258 kts 31°
2026-05-06 07:24 47.97032 13.05268 4525 ft 269 kts 35°
2026-05-06 07:24 47.98317 13.07250 4890 ft 265 kts 62°
2026-05-06 07:24 47.98942 13.09733 4889 ft 250 kts 75°
2026-05-06 07:24 47.99403 13.12215 4889 ft 242 kts 75°
2026-05-06 07:25 47.99879 13.14625 4877 ft 243 kts 67°
2026-05-06 07:25 48.00930 13.16572 4870 ft 245 kts 33°
2026-05-06 07:25 48.02562 13.17297 4877 ft 248 kts 358°
2026-05-06 07:25 48.04192 13.16523 4884 ft 251 kts 324°
2026-05-06 07:26 48.05273 13.14507 4884 ft 252 kts 290°
2026-05-06 07:26 48.05617 13.11937 4894 ft 253 kts 275°
2026-05-06 07:26 48.05791 13.09288 4708 ft 264 kts 275°
2026-05-06 07:26 48.05950 13.06556 4306 ft 265 kts 275°
2026-05-06 07:27 48.06097 13.03806 4011 ft 259 kts 275°
2026-05-06 07:27 48.06232 13.01198 3976 ft 243 kts 275°
2026-05-06 07:27 48.06353 12.98746 3987 ft 226 kts 275°
2026-05-06 07:27 48.06235 12.96510 3966 ft 209 kts 245°
2026-05-06 07:28 48.05443 12.94812 3975 ft 196 kts 226°
2026-05-06 07:28 48.04471 12.93281 3977 ft 206 kts 225°
2026-05-06 07:28 48.02436 12.90233 3976 ft 207 kts 213°
2026-05-06 07:29 48.01147 12.89348 3981 ft 203 kts 196°
2026-05-06 07:29 47.99775 12.88724 3988 ft 204 kts 195°
2026-05-06 07:29 47.98366 12.88504 3969 ft 201 kts 166°
2026-05-06 07:29 47.97059 12.89153 3996 ft 199 kts 156°
2026-05-06 07:30 47.95756 12.89946 4003 ft 202 kts 155°
2026-05-06 07:30 47.94452 12.90756 4008 ft 199 kts 155°
2026-05-06 07:30 47.93191 12.91557 4016 ft 200 kts 155°
2026-05-06 07:30 47.91888 12.92388 3843 ft 201 kts 155°
2026-05-06 07:31 47.90634 12.93188 3587 ft 194 kts 155°
2026-05-06 07:31 47.89413 12.93966 3340 ft 187 kts 154°
2026-05-06 07:31 47.88228 12.94723 3080 ft 180 kts 155°
2026-05-06 07:31 47.87142 12.95413 2874 ft 158 kts 155°
2026-05-06 07:32 47.86134 12.96057 2648 ft 156 kts 155°
2026-05-06 07:32 47.85148 12.96687 2463 ft 153 kts 155°
2026-05-06 07:32 47.84176 12.97309 2272 ft 152 kts 156°
2026-05-06 07:32 47.83203 12.97929 2067 ft 150 kts 155°
2026-05-06 07:33 47.82240 12.98542 1875 ft 150 kts 157°
2026-05-06 07:33 47.81277 12.99155 1672 ft 148 kts 157°
2026-05-06 07:33 47.80345 12.99747 1480 ft 142 kts 156°
2026-05-06 07:33 47.79486 13.00291 1420 ft 122 kts 157°
2026-05-06 07:34 47.78851 13.00697 1419 ft 63 kts 156°
2026-05-06 07:34 47.78631 13.00833 1418 ft 19 kts 159°
2026-05-06 07:34 47.78561 13.00827 1418 ft 10 kts 234°
2026-05-06 07:34 47.78535 13.00736 1418 ft 8 kts 247°
2026-05-06 07:35 47.78541 13.00635 1418 ft 12 kts 308°
2026-05-06 07:35 47.78625 13.00574 1418 ft 13 kts 337°
2026-05-06 07:35 47.78730 13.00508 1418 ft 18 kts 337°
2026-05-06 07:35 47.78858 13.00426 1418 ft 21 kts 336°
2026-05-06 07:36 47.78977 13.00350 1418 ft 15 kts 337°
2026-05-06 07:36 47.79082 13.00286 1418 ft 16 kts 338°
2026-05-06 07:36 47.79178 13.00225 1418 ft 14 kts 336°
2026-05-06 07:36 47.79271 13.00164 1418 ft 15 kts 337°
2026-05-06 07:37 47.79375 13.00099 1418 ft 16 kts 338°
2026-05-06 07:37 47.79476 13.00036 1418 ft 14 kts 336°
2026-05-06 07:37 47.79547 12.99989 1418 ft 9 kts 329°
2026-05-06 07:37 47.79559 12.99935 1418 ft 5 kts 246°
2026-05-06 07:38 47.79545 12.99886 1418 ft 5 kts 259°
2026-05-06 07:38 47.79571 12.99866 1418 ft 4 kts 17°
2026-05-06 07:38 47.79592 12.99874 1418 ft 0 kts 14°
2026-05-06 07:38 47.79592 12.99875 1418 ft 0 kts 15°